Location: Koszewko
(53.2876°N, 14.9061°E)
Time: 04:51:33
(UTC+00:00)

SL-16 R/B - Visible Passes

Search period start: 15 June 2021 00:00
Search period end: 25 June 2021 00:00
Orbit: 985 x 1007 km, 99.5° (Epoch: 14 June)

Date Brightness Start Highest point End Pass type
(mag) Time Alt. Az. Time Alt. Az. Time Alt. Az.
15 Jun 2.8 00:09:49 10° SSE 00:16:01 74° ENE 00:22:12 10° NNW visible
15 Jun 4.2 22:58:30 10° ESE 23:03:42 29° NE 23:08:53 10° N visible
16 Jun 2.6 00:40:39 10° S 00:46:51 74° WSW 00:53:04 10° NNW visible
16 Jun 5.0 21:49:32 10° ENE 21:52:06 13° NE 21:54:39 10° NNE visible
16 Jun 3.6 23:28:28 10° SE 23:34:14 42° ENE 23:40:01 10° N visible
17 Jun 2.9 01:11:53 10° S 01:17:50 47° W 01:23:48 10° NNW visible
17 Jun 4.8 22:18:23 10° E 22:22:21 18° NE 22:26:18 10° N visible
17 Jun 3.0 23:58:48 10° SE 00:04:54 64° ENE 00:11:01 10° NNW visible
18 Jun 4.4 22:47:48 10° ESE 22:52:43 26° NE 22:57:37 10° N visible
19 Jun 2.5 00:29:29 10° SSE 00:35:42 85° WSW 00:41:56 10° NNW visible
19 Jun 5.1 21:39:27 10° NE 21:41:12 11° NE 21:42:58 10° NNE visible
19 Jun 3.8 23:17:38 10° ESE 23:23:12 37° ENE 23:28:47 10° N visible
20 Jun 2.7 01:00:34 10° S 01:06:38 55° WSW 01:12:43 10° NNW visible
20 Jun 4.9 22:07:54 10° ENE 22:11:25 16° NE 22:14:56 10° N visible
20 Jun 3.2 23:47:49 10° SE 23:53:49 55° ENE 23:59:51 10° N visible
21 Jun 3.3 01:32:06 10° SSW 01:37:42 35° W 01:43:20 10° NNW visible
21 Jun 4.6 22:37:08 10° E 22:41:44 22° NE 22:46:20 10° N visible
22 Jun 2.6 00:18:22 10° SSE 00:24:34 83° ENE 00:30:47 10° NNW visible
22 Jun 4.1 23:06:50 10° ESE 23:12:11 32° NE 23:17:33 10° N visible
23 Jun 2.6 00:49:18 10° S 00:55:27 65° WSW 01:01:37 10° NNW visible
23 Jun 4.9 21:57:30 10° ENE 22:00:30 14° NE 22:03:29 10° N visible
23 Jun 3.4 23:36:53 10° SE 23:42:45 47° ENE 23:48:38 10° N visible
24 Jun 3.1 01:20:40 10° SSW 01:26:28 42° W 01:32:18 10° NNW visible
24 Jun 4.7 22:26:32 10° E 22:30:47 20° NE 22:35:01 10° N visible
